When you browse on this site, cookies collect data to enhance your experience and personalize the content and advertising you see.
Visit our Privacy Policy to learn more. By continuing to use the site, you agree to this use of cookies and data.
  • In Romania
  • List of Countries
  • For 7 days
  • Water Temperature
  • Weather Map
  • Weather Widgets
  • user-avatar
    Login

    Hourly Weather Batina

    Today, 6 December, Friday

    Time Temperature Precipitation Wind Pressure Humidity
    00:00 +8°C° 0 mm 1 mps 673 mmHg 73%
    01:00 +8°C° 0 mm 1 mps 672 mmHg 73%
    02:00 +7°C° 0 mm 1 mps 672 mmHg 74%
    03:00 +6°C° 0 mm 0 mps 672 mmHg 75%
    04:00 +6°C° 0 mm 0 mps 672 mmHg 75%
    05:00 +6°C° 0 mm 0 mps 672 mmHg 76%
    06:00 +5°C° 0 mm 0 mps 672 mmHg 74%
    07:00 +7°C° 0 mm 0 mps 673 mmHg 67%
    08:00 +9°C° 0 mm 0 mps 674 mmHg 59%
    09:00 +10°C° 0 mm 0 mps 674 mmHg 52%
    10:00 +12°C° 0 mm 1 mps 674 mmHg 48%
    11:00 +13°C° 0 mm 1 mps 674 mmHg 45%
    12:00 +14°C° 0 mm 1 mps 674 mmHg 42%
    13:00 +14°C° 0 mm 1 mps 674 mmHg 42%
    14:00 +14°C° 0 mm 1 mps 674 mmHg 42%
    15:00 +14°C° 0 mm 1 mps 673 mmHg 42%
    16:00 +12°C° 0 mm 1 mps 673 mmHg 49%
    17:00 +11°C° 0 mm 1 mps 673 mmHg 56%
    18:00 +8°C° 0 mm 0 mps 673 mmHg 63%
    19:00 +8°C° 0 mm 0 mps 673 mmHg 62%
    20:00 +7°C° 0 mm 0 mps 673 mmHg 60%
    21:00 +7°C° 0 mm 0 mps 673 mmHg 59%
    22:00 +7°C° 0 mm 0 mps 673 mmHg 58%
    23:00 +7°C° 0 mm 0 mps 672 mmHg 58%

    Tomorrow, 7 December, Saturday

    Time Temperature Precipitation Wind Pressure Humidity
    00:00 +6°C° 0 mm 0 mps 672 mmHg 57%
    01:00 +6°C° 0 mm 0 mps 672 mmHg 56%
    02:00 +6°C° 0 mm 0 mps 672 mmHg 54%
    03:00 +7°C° 0 mm 1 mps 672 mmHg 53%
    04:00 +7°C° 0 mm 1 mps 672 mmHg 54%
    05:00 +7°C° 0 mm 1 mps 672 mmHg 55%
    06:00 +7°C° 0 mm 1 mps 672 mmHg 55%
    07:00 +9°C° 0 mm 1 mps 672 mmHg 49%
    08:00 +11°C° 0 mm 1 mps 673 mmHg 42%
    09:00 +14°C° 0 mm 1 mps 674 mmHg 36%
    10:00 +14°C° 0 mm 1 mps 674 mmHg 35%
    11:00 +15°C° 0 mm 1 mps 674 mmHg 34%
    12:00 +16°C° 0 mm 1 mps 674 mmHg 32%
    13:00 +16°C° 0 mm 1 mps 674 mmHg 35%
    14:00 +15°C° 0 mm 1 mps 673 mmHg 37%
    15:00 +15°C° 0 mm 1 mps 673 mmHg 39%
    16:00 +14°C° 0 mm 1 mps 673 mmHg 44%
    17:00 +13°C° 0 mm 1 mps 673 mmHg 49%
    18:00 +12°C° 0 mm 1 mps 672 mmHg 54%
    19:00 +11°C° 0 mm 1 mps 672 mmHg 55%
    20:00 +11°C° 0 mm 1 mps 672 mmHg 56%
    21:00 +10°C° 0 mm 1 mps 673 mmHg 57%
    22:00 +10°C° 0 mm 1 mps 672 mmHg 58%
    23:00 +8°C° 0 mm 0 mps 672 mmHg 59%

    Day after tomorrow, 8 December, Sunday

    Time Temperature Precipitation Wind Pressure Humidity
    00:00 +8°C° 0 mm 0 mps 672 mmHg 60%
    01:00 +8°C° 0 mm 1 mps 672 mmHg 61%
    02:00 +8°C° 0 mm 1 mps 672 mmHg 62%
    03:00 +8°C° 0 mm 1 mps 671 mmHg 63%
    04:00 +8°C° 0 mm 1 mps 672 mmHg 64%
    05:00 +7°C° 0 mm 1 mps 672 mmHg 66%
    06:00 +6°C° 0 mm 2 mps 672 mmHg 67%
    07:00 +8°C° 0 mm 2 mps 673 mmHg 63%
    08:00 +9°C° 0 mm 2 mps 673 mmHg 59%
    09:00 +10°C° 0 mm 2 mps 674 mmHg 55%
    10:00 +11°C° 0 mm 3 mps 674 mmHg 52%
    11:00 +12°C° 0 mm 3 mps 674 mmHg 50%
    12:00 +12°C° 0 mm 3 mps 674 mmHg 48%
    13:00 +12°C° 0 mm 3 mps 674 mmHg 48%
    14:00 +12°C° 0 mm 3 mps 674 mmHg 49%
    15:00 +12°C° 0 mm 4 mps 673 mmHg 50%
    16:00 +11°C° 0 mm 3 mps 673 mmHg 57%
    17:00 +10°C° 0 mm 3 mps 673 mmHg 63%
    18:00 +8°C° 0 mm 2 mps 673 mmHg 70%
    19:00 +8°C° 0 mm 2 mps 673 mmHg 74%
    20:00 +7°C° 0 mm 2 mps 673 mmHg 79%
    21:00 +8°C° 0 mm 1 mps 673 mmHg 83%
    22:00 +8°C° 0 mm 1 mps 673 mmHg 84%
    23:00 +7°C° 0 mm 1 mps 673 mmHg 85%

    9 December, Monday

    Time Temperature Precipitation Wind Pressure Humidity
    00:00 +7°C° 0 mm 1 mps 673 mmHg 87%
    01:00 +7°C° 0 mm 1 mps 673 mmHg 87%
    02:00 +6°C° 0 mm 1 mps 672 mmHg 87%
    03:00 +6°C° 0 mm 1 mps 672 mmHg 87%
    04:00 +6°C° 0 mm 1 mps 672 mmHg 86%
    05:00 +6°C° 0 mm 1 mps 672 mmHg 85%
    06:00 +5°C° 0 mm 1 mps 672 mmHg 84%
    07:00 +7°C° 0 mm 1 mps 673 mmHg 74%
    08:00 +9°C° 0 mm 1 mps 674 mmHg 64%
    09:00 +11°C° 0 mm 1 mps 674 mmHg 54%
    10:00 +10°C° 0 mm 2 mps 674 mmHg 50%
    11:00 +12°C° 0 mm 2 mps 674 mmHg 46%
    12:00 +12°C° 0 mm 3 mps 674 mmHg 42%
    13:00 +12°C° 0 mm 3 mps 674 mmHg 46%
    14:00 +12°C° 0 mm 3 mps 674 mmHg 50%
    15:00 +12°C° 0 mm 3 mps 674 mmHg 54%
    16:00 +10°C° 0 mm 3 mps 673 mmHg 61%
    17:00 +9°C° 0 mm 2 mps 673 mmHg 68%
    18:00 +8°C° 0 mm 2 mps 673 mmHg 75%
    19:00 +7°C° 0 mm 2 mps 673 mmHg 71%
    20:00 +7°C° 0 mm 2 mps 673 mmHg 66%
    21:00 +7°C° 0 mm 2 mps 674 mmHg 62%
    22:00 +7°C° 0 mm 2 mps 673 mmHg 59%
    23:00 +6°C° 0 mm 2 mps 673 mmHg 56%

    10 December, Tuesday

    Time Temperature Precipitation Wind Pressure Humidity
    00:00 +6°C° 0 mm 2 mps 673 mmHg 53%
    01:00 +6°C° 0 mm 2 mps 673 mmHg 54%
    02:00 +5°C° 0 mm 2 mps 672 mmHg 55%
    03:00 +5°C° 0 mm 2 mps 672 mmHg 55%
    04:00 +5°C° 0 mm 2 mps 672 mmHg 62%
    05:00 +4°C° 0 mm 2 mps 672 mmHg 69%
    06:00 +4°C° 0 mm 2 mps 671 mmHg 76%
    07:00 +4°C° 0 mm 3 mps 672 mmHg 72%
    08:00 +5°C° 0 mm 3 mps 673 mmHg 68%
    09:00 +6°C° 0 mm 4 mps 673 mmHg 64%
    10:00 +7°C° 0 mm 4 mps 673 mmHg 58%
    11:00 +8°C° 0 mm 5 mps 673 mmHg 51%
    12:00 +9°C° 0 mm 5 mps 673 mmHg 45%
    13:00 +9°C° 0 mm 6 mps 672 mmHg 44%
    14:00 +9°C° 0 mm 7 mps 672 mmHg 42%
    15:00 +9°C° 0 mm 8 mps 672 mmHg 40%
    16:00 +7°C° 0 mm 6 mps 671 mmHg 50%
    17:00 +6°C° 0 mm 5 mps 671 mmHg 59%
    18:00 +4°C° 0 mm 3 mps 671 mmHg 69%
    19:00 +4°C° 0 mm 4 mps 671 mmHg 72%
    20:00 +3°C° 0 mm 5 mps 672 mmHg 76%
    21:00 +3°C° 0 mm 5 mps 672 mmHg 80%
    22:00 +3°C° 0 mm 4 mps 672 mmHg 83%
    23:00 +3°C° 0 mm 4 mps 672 mmHg 86%

    11 December, Wednesday

    Time Temperature Precipitation Wind Pressure Humidity
    00:00 +2°C° 0 mm 3 mps 672 mmHg 89%
    01:00 +2°C° 0 mm 3 mps 672 mmHg 88%
    02:00 +3°C° 0 mm 2 mps 672 mmHg 86%
    03:00 +2°C° 0 mm 2 mps 671 mmHg 85%
    04:00 +2°C° 0 mm 2 mps 671 mmHg 75%
    05:00 +3°C° 0 mm 1 mps 671 mmHg 66%
    06:00 +3°C° 0 mm 1 mps 671 mmHg 57%
    07:00 +6°C° 0 mm 1 mps 672 mmHg 46%
    08:00 +8°C° 0 mm 1 mps 673 mmHg 34%
    09:00 +10°C° 0 mm 0 mps 674 mmHg 23%
    10:00 +12°C° 0 mm 1 mps 674 mmHg 21%
    11:00 +13°C° 0 mm 1 mps 673 mmHg 19%
    12:00 +14°C° 0 mm 2 mps 673 mmHg 17%
    13:00 +14°C° 0 mm 2 mps 673 mmHg 20%
    14:00 +14°C° 0 mm 2 mps 672 mmHg 23%
    15:00 +12°C° 0 mm 3 mps 672 mmHg 26%
    16:00 +12°C° 0 mm 2 mps 671 mmHg 31%
    17:00 +9°C° 0 mm 2 mps 671 mmHg 37%
    18:00 +7°C° 0 mm 2 mps 670 mmHg 42%
    19:00 +7°C° 0 mm 2 mps 671 mmHg 41%
    20:00 +7°C° 0 mm 2 mps 671 mmHg 41%
    21:00 +8°C° 0 mm 1 mps 671 mmHg 40%
    22:00 +7°C° 0 mm 2 mps 671 mmHg 41%
    23:00 +6°C° 0 mm 2 mps 670 mmHg 42%
    Show more